Volver al catálogo

OPS 4682 DEB

ActivoPO
NORAD 38426·DEBRIS·🇺🇸 United States

Lanzado Apr 3, 1965 desde Vandenberg Space Force Base

Loading…

Próximos Pases (próximas 24 horas)

TLE

ActualizadoSource: Space-Track

Época: Sep 14, 2026, 14:18 UTC

1 38426U 65027EF  26257.59600252  .00000120  00000-0  39466-3 0  9998
2 38426  90.2516  12.0688 0033575 272.4532  87.2744 12.96157426646642

Sigue OPS 4682 DEB en tiempo real con AllMySat

Download on the App Store